Regional Weather Roundup
Issued by NWS Albany, NY

Current Version | Previous Version | Text Only | Print | Product List | Glossary On
Versions: 1 2 3 4 5 6 7 8 9 10 11 12 13 14 15 16 17 18 19 20 21 22 23 24 25 26 27
000
ASUS41 KALY 272310
RWRALY

NEW YORK STATE HOURLY WEATHER ROUNDUP
NATIONAL WEATHER SERVICE ALBANY NY
700 PM EDT THU APR 27 2017

NOTE: "FAIR" INDICATES FEW OR NO CLOUDS BELOW 12,000 FEET WITH NO
SIGNIFICANT WEATHER AND/OR NO OBSTRUCTIONS TO VISIBILITY.

NYZ032-033-038>043-046>054-057>066-NYZ062>081-082-084-280000-
EAST


CITY           SKY/WX    TMP DP  RH WIND       PRES   REMARKS
ALBANY         MOCLDY    71  56  58 S17G25    29.81R
GLENS FALLS    CLEAR     74  56  53 S13       29.77R
POUGHKEEPSIE   CLOUDY    66  57  72 SE8       29.85S
MONTGOMERY     CLOUDY    67  57  70 SE12      29.84S
WHITE PLAINS   CLOUDY    62  56  80 SE10      29.89S
ISLIP          CLOUDY    59  57  93 S13       29.92R
NEW YORK CITY  CLOUDY    64  57  78 SE10      29.88S
CENTRAL PARK   CLOUDY    62  57  83 MISG      29.91F
$$

NYZ005>009-017-018-044>046-055-056-280000-
CENTRAL


CITY           SKY/WX    TMP DP  RH WIND       PRES   REMARKS
FULTON         PTSUNNY   78  57  48 VRB5      29.62R
SYRACUSE       CLOUDY    77  60  55 SE13      29.62F
ROME           PTCLDY    74  60  61 SE16G24   29.70S
ELMIRA         PTSUNNY   76  57  51 SW14      29.69R
BINGHAMTON     CLOUDY    72  57  59 S14G25    29.74S
MONTICELLO     PTCLDY    64  59  82 SE13      29.86S
$$

NYZ026>034-041>043-087-280000-
NORTH


CITY           SKY/WX    TMP DP  RH WIND       PRES   REMARKS
WATERTOWN      MOSUNNY   80  58  46 SE7       29.59F
FORT DRUM      NOT AVBL
OGDENSBURG     FAIR      82  61  47 E5        29.59F
MASSENA        CLEAR     78  57  48 NE13      29.63F
SARANAC LAKE   CLEAR     74  56  53 SE10      29.72F
PLATTSBURGH    CLEAR     72  55  55 SE13      29.72F
$$

NYZ001>004-010>016-019>021-085-280000-
WEST


CITY           SKY/WX    TMP DP  RH WIND       PRES   REMARKS
NIAGARA FALLS  LGT RAIN  72  58  61 W26G33    29.58R
BUFFALO        TSTM      71  57  61 SW18G32   29.61R
DUNKIRK        LGT RAIN  60  58  92 SW9       29.65R
JAMESTOWN      CLOUDY    66  55  68 S8        29.66S
WELLSVILLE     MOSUNNY   72  54  53 S10G21    29.71R
ROCHESTER      CLOUDY    76  56  49 S13       29.57F
PENN YAN       CLOUDY    75  55  49 S14G22    29.67S
$$

             KEY
       WCI = WIND CHILL INDEX
       VSB = VISIBILITY
       HX  = HEAT INDEX
$$




USA.gov is the U.S. government's official web portal to all federal, state and local government web resources and services.